Time,TemperatureF,DewpointF,PressureIn,WindDirection,WindDirectionDegrees,WindSpeedMPH,WindSpeedGustMPH,Humidity,HourlyPrecipIn,Conditions,Clouds,dailyrainin,SoftwareType,DateUTC
2013-02-07 00:02:00,28.8,18.5,30.01,NNE,24,4.0,5.0,65,0.00,,,0.00,meteohub,2013-02-07 07:02:00,
2013-02-07 00:12:00,28.2,19.0,30.02,NNE,24,5.0,5.0,68,0.00,,,0.00,meteohub,2013-02-07 07:12:00,
2013-02-07 00:22:00,28.8,19.6,30.03,NNE,24,5.0,6.0,68,0.00,,,0.00,meteohub,2013-02-07 07:22:00,
2013-02-07 00:32:00,28.9,19.0,30.03,NNE,24,3.0,7.0,66,0.00,,,0.00,meteohub,2013-02-07 07:32:00,
2013-02-07 00:42:00,28.8,17.4,30.04,NNE,24,2.0,7.0,62,0.00,,,0.00,meteohub,2013-02-07 07:42:00,
2013-02-07 00:52:00,27.9,16.9,30.04,NNE,24,0.0,6.0,63,0.00,,,0.00,meteohub,2013-02-07 07:52:00,
2013-02-07 01:02:00,27.5,18.0,30.04,NNE,24,0.0,2.0,67,0.00,,,0.00,meteohub,2013-02-07 08:02:00,
2013-02-07 01:12:00,27.1,17.2,30.04,NNE,24,2.0,3.0,66,0.00,,,0.00,meteohub,2013-02-07 08:12:00,
2013-02-07 01:22:00,26.4,17.2,30.04,NNE,24,1.0,4.0,68,0.00,,,0.00,meteohub,2013-02-07 08:22:00,
2013-02-07 01:32:00,26.2,17.1,30.04,NNE,24,0.0,4.0,68,0.00,,,0.00,meteohub,2013-02-07 08:32:00,
2013-02-07 01:42:00,25.2,17.1,30.04,NNE,24,2.0,2.0,71,0.00,,,0.00,meteohub,2013-02-07 08:42:00,
2013-02-07 01:52:00,24.6,17.2,30.04,NNE,24,2.0,2.0,73,0.00,,,0.00,meteohub,2013-02-07 08:52:00,
2013-02-07 02:02:00,24.1,16.3,30.05,NNE,24,2.0,4.0,72,0.00,,,0.00,meteohub,2013-02-07 09:02:00,
2013-02-07 02:12:00,23.7,16.3,30.06,North,10,1.0,7.0,73,0.00,,,0.00,meteohub,2013-02-07 09:12:00,
2013-02-07 02:22:00,23.5,16.2,30.06,North,10,3.0,7.0,73,0.00,,,0.00,meteohub,2013-02-07 09:22:00,
2013-02-07 02:32:00,23.7,16.3,30.06,North,10,2.0,4.0,73,0.00,,,0.00,meteohub,2013-02-07 09:32:00,
2013-02-07 02:42:00,23.7,16.3,30.07,North,10,4.0,4.0,73,0.00,,,0.00,meteohub,2013-02-07 09:42:00,
2013-02-07 02:52:00,23.5,15.8,30.08,North,10,2.0,5.0,72,0.00,,,0.00,meteohub,2013-02-07 09:52:00,
2013-02-07 03:02:00,22.8,15.1,30.07,North,10,1.0,5.0,72,0.00,,,0.00,meteohub,2013-02-07 10:02:00,
2013-02-07 03:12:00,22.5,15.1,30.07,North,10,2.0,5.0,73,0.00,,,0.00,meteohub,2013-02-07 10:12:00,
2013-02-07 03:22:00,22.5,15.1,30.07,North,10,1.0,5.0,73,0.00,,,0.00,meteohub,2013-02-07 10:22:00,
2013-02-07 03:32:00,22.5,15.4,30.08,North,10,1.0,5.0,74,0.00,,,0.00,meteohub,2013-02-07 10:32:00,
2013-02-07 03:42:00,22.1,14.7,30.08,North,10,4.0,5.0,73,0.00,,,0.00,meteohub,2013-02-07 10:42:00,
2013-02-07 03:52:00,21.7,14.4,30.08,North,10,2.0,6.0,73,0.00,,,0.00,meteohub,2013-02-07 10:52:00,
2013-02-07 04:02:00,21.6,14.2,30.08,North,10,1.0,3.0,73,0.00,,,0.00,meteohub,2013-02-07 11:02:00,
2013-02-07 04:12:00,21.6,14.5,30.08,North,10,1.0,4.0,74,0.00,,,0.00,meteohub,2013-02-07 11:12:00,
2013-02-07 04:22:00,21.6,14.5,30.09,North,10,2.0,4.0,74,0.00,,,0.00,meteohub,2013-02-07 11:22:00,
2013-02-07 04:32:00,21.7,14.2,30.09,North,10,1.0,3.0,72,0.00,,,0.00,meteohub,2013-02-07 11:32:00,
2013-02-07 04:42:00,21.6,14.2,30.10,North,10,2.0,3.0,73,0.00,,,0.00,meteohub,2013-02-07 11:42:00,
2013-02-07 04:52:00,21.2,13.6,30.11,North,10,2.0,4.0,72,0.00,,,0.00,meteohub,2013-02-07 11:52:00,
2013-02-07 05:02:00,20.7,13.1,30.11,North,10,4.0,5.0,72,0.00,,,0.00,meteohub,2013-02-07 12:02:00,
2013-02-07 05:12:00,19.9,12.4,30.12,North,10,2.0,5.0,72,0.00,,,0.00,meteohub,2013-02-07 12:12:00,
2013-02-07 05:22:00,19.8,12.6,30.12,North,10,2.0,4.0,73,0.00,,,0.00,meteohub,2013-02-07 12:22:00,
2013-02-07 05:32:00,19.8,12.6,30.12,North,10,2.0,4.0,73,0.00,,,0.00,meteohub,2013-02-07 12:32:00,
2013-02-07 05:42:00,19.6,12.4,30.13,North,10,1.0,4.0,73,0.00,,,0.00,meteohub,2013-02-07 12:42:00,
2013-02-07 05:52:00,19.9,12.4,30.13,North,10,2.0,4.0,72,0.00,,,0.00,meteohub,2013-02-07 12:52:00,
2013-02-07 06:02:00,19.6,12.0,30.13,North,10,2.0,4.0,72,0.00,,,0.00,meteohub,2013-02-07 13:02:00,
2013-02-07 06:12:00,19.0,11.5,30.14,North,10,4.0,4.0,72,0.00,,,0.00,meteohub,2013-02-07 13:12:00,
2013-02-07 06:22:00,18.7,10.8,30.15,North,10,0.0,6.0,71,0.00,,,0.00,meteohub,2013-02-07 13:22:00,
2013-02-07 06:32:00,18.9,10.8,30.16,North,10,0.0,4.0,70,0.00,,,0.00,meteohub,2013-02-07 13:32:00,
2013-02-07 06:42:00,18.7,10.6,30.16,North,10,0.0,3.0,70,0.00,,,0.00,meteohub,2013-02-07 13:42:00,
2013-02-07 06:52:00,18.3,10.2,30.17,North,10,3.0,3.0,70,0.00,,,0.00,meteohub,2013-02-07 13:52:00,
2013-02-07 07:02:00,18.0,9.9,30.17,North,10,2.0,4.0,70,0.00,,,0.00,meteohub,2013-02-07 14:02:00,
2013-02-07 07:12:00,17.8,9.7,30.18,North,10,3.0,5.0,70,0.00,,,0.00,meteohub,2013-02-07 14:12:00,
2013-02-07 07:22:00,18.1,10.0,30.19,North,10,1.0,5.0,70,0.00,,,0.00,meteohub,2013-02-07 14:22:00,
2013-02-07 07:32:00,19.0,10.2,30.19,North,10,2.0,4.0,68,0.00,,,0.00,meteohub,2013-02-07 14:32:00,
2013-02-07 07:42:00,19.9,11.1,30.20,North,10,1.0,5.0,68,0.00,,,0.00,meteohub,2013-02-07 14:42:00,
2013-02-07 07:52:00,21.2,11.3,30.20,North,10,4.0,5.0,65,0.00,,,0.00,meteohub,2013-02-07 14:52:00,
2013-02-07 08:02:00,21.9,10.9,30.21,North,10,2.0,6.0,62,0.00,,,0.00,meteohub,2013-02-07 15:02:00,
2013-02-07 08:12:00,22.5,11.1,30.22,North,10,4.0,6.0,61,0.00,,,0.00,meteohub,2013-02-07 15:12:00,
2013-02-07 08:22:00,22.8,10.2,30.23,North,10,3.0,6.0,58,0.00,,,0.00,meteohub,2013-02-07 15:22:00,
2013-02-07 08:32:00,23.0,10.4,30.23,North,5,3.0,7.0,58,0.00,,,0.00,meteohub,2013-02-07 15:32:00,
2013-02-07 08:42:00,23.4,10.8,30.24,North,0,2.0,7.0,58,0.00,,,0.00,meteohub,2013-02-07 15:42:00,
2013-02-07 08:52:00,24.3,11.3,30.24,North,0,1.0,6.0,57,0.00,,,0.00,meteohub,2013-02-07 15:52:00,
2013-02-07 09:02:00,25.3,11.5,30.24,North,0,2.0,5.0,55,0.00,,,0.00,meteohub,2013-02-07 16:02:00,
2013-02-07 09:12:00,26.2,11.5,30.24,North,0,4.0,4.0,53,0.00,,,0.00,meteohub,2013-02-07 16:12:00,
2013-02-07 09:22:00,26.8,11.5,30.23,North,0,2.0,4.0,52,0.00,,,0.00,meteohub,2013-02-07 16:22:00,
2013-02-07 09:32:00,27.1,10.9,30.24,NNE,14,2.0,5.0,50,0.00,,,0.00,meteohub,2013-02-07 16:32:00,
2013-02-07 09:42:00,27.5,11.7,30.24,NE,43,1.0,7.0,51,0.00,,,0.00,meteohub,2013-02-07 16:42:00,
2013-02-07 09:52:00,28.2,12.0,30.24,NE,43,2.0,6.0,50,0.00,,,0.00,meteohub,2013-02-07 16:52:00,
2013-02-07 10:02:00,29.1,11.8,30.24,NE,43,0.0,6.0,48,0.00,,,0.00,meteohub,2013-02-07 17:02:00,
2013-02-07 10:12:00,30.4,12.0,30.24,NE,43,3.0,5.0,46,0.00,,,0.00,meteohub,2013-02-07 17:12:00,
2013-02-07 10:22:00,30.6,11.7,30.24,NE,45,4.0,7.0,45,0.00,,,0.00,meteohub,2013-02-07 17:22:00,
2013-02-07 10:32:00,31.5,12.0,30.24,NE,45,4.0,7.0,44,0.00,,,0.00,meteohub,2013-02-07 17:32:00,
2013-02-07 10:42:00,31.5,11.5,30.24,NE,45,2.0,6.0,43,0.00,,,0.00,meteohub,2013-02-07 17:42:00,
2013-02-07 10:52:00,31.8,11.8,30.24,NE,45,1.0,5.0,43,0.00,,,0.00,meteohub,2013-02-07 17:52:00,
2013-02-07 11:02:00,33.1,12.0,30.23,NE,45,3.0,6.0,41,0.00,,,0.00,meteohub,2013-02-07 18:02:00,
2013-02-07 11:12:00,33.6,11.8,30.24,ENE,74,3.0,9.0,40,0.00,,,0.00,meteohub,2013-02-07 18:12:00,
2013-02-07 11:22:00,34.3,12.0,30.23,ENE,75,5.0,9.0,39,0.00,,,0.00,meteohub,2013-02-07 18:22:00,
2013-02-07 11:32:00,35.2,10.9,30.23,ENE,75,5.0,9.0,36,0.00,,,0.00,meteohub,2013-02-07 18:32:00,
2013-02-07 11:42:00,35.8,10.2,30.23,ENE,75,3.0,7.0,34,0.00,,,0.00,meteohub,2013-02-07 18:42:00,
2013-02-07 11:52:00,36.3,10.0,30.22,ENE,75,0.0,7.0,33,0.00,,,0.00,meteohub,2013-02-07 18:52:00,
2013-02-07 12:02:00,37.2,10.0,30.22,East,85,8.0,8.0,32,0.00,,,0.00,meteohub,2013-02-07 19:02:00,
2013-02-07 12:12:00,37.6,9.0,30.21,East,85,2.0,10.0,30,0.00,,,0.00,meteohub,2013-02-07 19:12:00,
2013-02-07 12:22:00,38.3,8.8,30.21,East,85,2.0,7.0,29,0.00,,,0.00,meteohub,2013-02-07 19:22:00,
2013-02-07 12:32:00,38.8,8.4,30.20,East,90,0.0,10.0,28,0.00,,,0.00,meteohub,2013-02-07 19:32:00,
2013-02-07 12:42:00,39.6,7.5,30.20,East,91,0.0,10.0,26,0.00,,,0.00,meteohub,2013-02-07 19:42:00,
2013-02-07 12:52:00,40.3,8.1,30.20,East,91,3.0,10.0,26,0.00,,,0.00,meteohub,2013-02-07 19:52:00,
2013-02-07 13:02:00,40.5,7.3,30.20,East,93,6.0,8.0,25,0.00,,,0.00,meteohub,2013-02-07 20:02:00,
2013-02-07 13:12:00,40.5,7.3,30.19,SSE,151,4.0,10.0,25,0.00,,,0.00,meteohub,2013-02-07 20:12:00,
2013-02-07 13:22:00,40.8,6.8,30.19,SSE,151,4.0,10.0,24,0.00,,,0.00,meteohub,2013-02-07 20:22:00,
2013-02-07 13:32:00,41.7,5.7,30.18,SSE,162,1.0,9.0,22,0.00,,,0.00,meteohub,2013-02-07 20:32:00,
2013-02-07 13:42:00,42.3,5.2,30.18,SSE,153,4.0,9.0,21,0.00,,,0.00,meteohub,2013-02-07 20:42:00,
2013-02-07 13:52:00,42.6,4.3,30.18,South,169,4.0,11.0,20,0.00,,,0.00,meteohub,2013-02-07 20:52:00,
2013-02-07 14:02:00,43.2,5.9,30.17,South,181,8.0,16.0,21,0.00,,,0.00,meteohub,2013-02-07 21:02:00,
2013-02-07 14:12:00,43.0,7.7,30.17,SSW,197,7.0,16.0,23,0.00,,,0.00,meteohub,2013-02-07 21:12:00,
2013-02-07 14:22:00,42.4,8.2,30.17,SSW,194,10.0,16.0,24,0.00,,,0.00,meteohub,2013-02-07 21:22:00,
2013-02-07 14:32:00,43.0,9.5,30.17,SSW,197,10.0,16.0,25,0.00,,,0.00,meteohub,2013-02-07 21:32:00,
2013-02-07 14:42:00,42.4,10.0,30.16,SSW,197,7.0,15.0,26,0.00,,,0.00,meteohub,2013-02-07 21:42:00,
2013-02-07 14:52:00,42.3,11.5,30.16,South,190,9.0,17.0,28,0.00,,,0.00,meteohub,2013-02-07 21:52:00,
2013-02-07 15:02:00,42.3,11.5,30.16,SW,224,14.0,18.0,28,0.00,,,0.00,meteohub,2013-02-07 22:02:00,
2013-02-07 15:12:00,41.9,11.1,30.16,SSW,194,18.0,18.0,28,0.00,,,0.00,meteohub,2013-02-07 22:12:00,
2013-02-07 15:22:00,41.4,10.8,30.16,SSW,195,16.0,18.0,28,0.00,,,0.00,meteohub,2013-02-07 22:22:00,
2013-02-07 15:32:00,41.2,11.3,30.16,SSW,195,18.0,18.0,29,0.00,,,0.00,meteohub,2013-02-07 22:32:00,
2013-02-07 15:42:00,40.5,10.8,30.16,SSW,210,15.0,19.0,29,0.00,,,0.00,meteohub,2013-02-07 22:42:00,
2013-02-07 15:52:00,39.7,10.8,30.16,SSW,202,9.0,19.0,30,0.00,,,0.00,meteohub,2013-02-07 22:52:00,
2013-02-07 16:02:00,39.7,10.0,30.16,SSW,195,12.0,19.0,29,0.00,,,0.00,meteohub,2013-02-07 23:02:00,
2013-02-07 16:12:00,39.4,9.7,30.16,SSW,195,10.0,20.0,29,0.00,,,0.00,meteohub,2013-02-07 23:12:00,
2013-02-07 16:22:00,38.8,10.8,30.17,South,190,14.0,18.0,31,0.00,,,0.00,meteohub,2013-02-07 23:22:00,
2013-02-07 16:32:00,38.5,10.4,30.17,SSW,201,12.0,19.0,31,0.00,,,0.00,meteohub,2013-02-07 23:32:00,
2013-02-07 16:42:00,37.9,11.3,30.17,South,189,11.0,18.0,33,0.00,,,0.00,meteohub,2013-02-07 23:42:00,
2013-02-07 16:52:00,37.6,11.1,30.17,SSW,195,10.0,18.0,33,0.00,,,0.00,meteohub,2013-02-07 23:52:00,
2013-02-07 17:02:00,36.9,11.1,30.17,SSW,203,12.0,19.0,34,0.00,,,0.00,meteohub,2013-02-08 00:02:00,
2013-02-07 17:12:00,35.2,10.9,30.17,SSW,199,6.0,18.0,36,0.00,,,0.00,meteohub,2013-02-08 00:12:00,
2013-02-07 17:22:00,34.5,10.2,30.17,SSW,204,7.0,18.0,36,0.00,,,0.00,meteohub,2013-02-08 00:22:00,
2013-02-07 17:32:00,34.2,10.6,30.18,SSW,213,14.0,20.0,37,0.00,,,0.00,meteohub,2013-02-08 00:32:00,
2013-02-07 17:42:00,34.0,11.1,30.18,SSW,204,11.0,16.0,38,0.00,,,0.00,meteohub,2013-02-08 00:42:00,
2013-02-07 17:52:00,33.6,10.0,30.18,SSW,210,10.0,19.0,37,0.00,,,0.00,meteohub,2013-02-08 00:52:00,
2013-02-07 18:02:00,33.4,10.0,30.18,SSW,199,9.0,18.0,37,0.00,,,0.00,meteohub,2013-02-08 01:02:00,
2013-02-07 18:12:00,33.4,10.0,30.18,SW,218,8.0,18.0,37,0.00,,,0.00,meteohub,2013-02-08 01:12:00,
2013-02-07 18:22:00,33.4,10.0,30.19,SSW,212,8.0,19.0,37,0.00,,,0.00,meteohub,2013-02-08 01:22:00,
2013-02-07 18:32:00,32.9,9.5,30.18,SSW,208,7.0,18.0,37,0.00,,,0.00,meteohub,2013-02-08 01:32:00,
2013-02-07 18:42:00,32.7,9.9,30.18,SSW,195,10.0,15.0,38,0.00,,,0.00,meteohub,2013-02-08 01:42:00,
2013-02-07 18:52:00,32.5,9.7,30.19,South,191,9.0,16.0,38,0.00,,,0.00,meteohub,2013-02-08 01:52:00,
2013-02-07 19:02:00,32.5,10.4,30.19,SSW,192,11.0,15.0,39,0.00,,,0.00,meteohub,2013-02-08 02:02:00,
2013-02-07 19:12:00,32.4,10.2,30.19,SSW,207,7.0,15.0,39,0.00,,,0.00,meteohub,2013-02-08 02:12:00,
2013-02-07 19:22:00,32.2,10.0,30.20,SSW,194,14.0,14.0,39,0.00,,,0.00,meteohub,2013-02-08 02:22:00,
2013-02-07 19:32:00,31.8,10.2,30.20,South,189,4.0,15.0,40,0.00,,,0.00,meteohub,2013-02-08 02:32:00,
2013-02-07 19:42:00,31.5,9.9,30.20,SSW,192,10.0,10.0,40,0.00,,,0.00,meteohub,2013-02-08 02:42:00,
2013-02-07 19:52:00,31.8,10.2,30.20,South,190,6.0,14.0,40,0.00,,,0.00,meteohub,2013-02-08 02:52:00,
2013-02-07 20:02:00,31.1,9.7,30.21,SSW,197,6.0,16.0,40,0.00,,,0.00,meteohub,2013-02-08 03:02:00,
2013-02-07 20:12:00,30.2,8.8,30.21,SSW,205,7.0,16.0,40,0.00,,,0.00,meteohub,2013-02-08 03:12:00,
2013-02-07 20:22:00,29.7,10.4,30.22,SW,219,5.0,14.0,44,0.00,,,0.00,meteohub,2013-02-08 03:22:00,
2013-02-07 20:32:00,28.9,11.7,30.21,SSW,194,12.0,15.0,48,0.00,,,0.00,meteohub,2013-02-08 03:32:00,
2013-02-07 20:42:00,28.8,12.0,30.21,SSW,197,9.0,16.0,49,0.00,,,0.00,meteohub,2013-02-08 03:42:00,
2013-02-07 20:52:00,28.8,12.0,30.22,SW,217,12.0,16.0,49,0.00,,,0.00,meteohub,2013-02-08 03:52:00,
2013-02-07 21:02:00,28.8,11.5,30.22,SSW,212,9.0,16.0,48,0.00,,,0.00,meteohub,2013-02-08 04:02:00,
2013-02-07 21:12:00,29.5,11.3,30.22,SSW,195,10.0,14.0,46,0.00,,,0.00,meteohub,2013-02-08 04:12:00,
2013-02-07 21:22:00,29.7,10.9,30.22,SSW,209,10.0,16.0,45,0.00,,,0.00,meteohub,2013-02-08 04:22:00,
2013-02-07 21:32:00,29.8,10.6,30.22,SSW,194,6.0,16.0,44,0.00,,,0.00,meteohub,2013-02-08 04:32:00,
2013-02-07 21:42:00,29.5,10.2,30.22,SSW,203,5.0,16.0,44,0.00,,,0.00,meteohub,2013-02-08 04:42:00,
2013-02-07 21:52:00,29.5,9.7,30.22,SSW,208,8.0,11.0,43,0.00,,,0.00,meteohub,2013-02-08 04:52:00,
2013-02-07 22:02:00,29.7,9.3,30.22,SW,228,7.0,13.0,42,0.00,,,0.00,meteohub,2013-02-08 05:02:00,
2013-02-07 22:12:00,28.9,8.2,30.22,SW,234,6.0,10.0,41,0.00,,,0.00,meteohub,2013-02-08 05:12:00,
2013-02-07 22:22:00,28.8,8.1,30.21,SW,232,7.0,9.0,41,0.00,,,0.00,meteohub,2013-02-08 05:22:00,
2013-02-07 22:32:00,29.5,8.1,30.21,SW,236,8.0,10.0,40,0.00,,,0.00,meteohub,2013-02-08 05:32:00,
2013-02-07 22:42:00,29.7,8.2,30.21,SSW,206,6.0,14.0,40,0.00,,,0.00,meteohub,2013-02-08 05:42:00,
2013-02-07 22:52:00,29.8,8.4,30.21,SW,218,7.0,11.0,40,0.00,,,0.00,meteohub,2013-02-08 05:52:00,
2013-02-07 23:02:00,30.0,8.1,30.21,WSW,239,4.0,13.0,39,0.00,,,0.00,meteohub,2013-02-08 06:02:00,
2013-02-07 23:12:00,30.0,7.0,30.21,SSW,209,5.0,13.0,37,0.00,,,0.00,meteohub,2013-02-08 06:12:00,
2013-02-07 23:22:00,29.8,6.8,30.21,SW,218,7.0,10.0,37,0.00,,,0.00,meteohub,2013-02-08 06:22:00,
2013-02-07 23:32:00,30.0,7.0,30.21,SW,218,4.0,9.0,37,0.00,,,0.00,meteohub,2013-02-08 06:32:00,
2013-02-07 23:42:00,29.8,6.8,30.20,SW,218,4.0,9.0,37,0.00,,,0.00,meteohub,2013-02-08 06:42:00,
2013-02-07 23:52:00,29.7,6.6,30.20,SW,222,5.0,7.0,37,0.00,,,0.00,meteohub,2013-02-08 06:52:00,